Weather in Clopotiva

Romania     45°29′43″N   22°49′16″E
temp.,
°C
wind,
m/s
gust,
m/s
humid.,
%
clouds,
%
prec.,
mm/h
press.,
hPa
HPBL,
m
11 may, tue
tue1100:00+10s22785 0.0 101924
03:00+10s21724 0.0 101819
06:00+10s21765 0.0 101716
09:00+15ne11585 0.0 1017264
12:00+19nne22488 0.0 10161010
15:00+21nne214527 0.0 10141424
18:00+21nne114623 0.0 1013857
21:00+13s22781 0.0 101341
12 may, wed
wed1200:00+10s32762 0.0 101349
03:00+9s22650 0.0 101236
06:00+8sse22600 0.0 101024
09:00+15ne22510 0.0 1009308
12:00+19n22423 0.0 10071150
15:00+20nw2246100 0.1 10061756
18:00+14wsw238094 0.7 1006157
21:00+11s009078 2.0 100718
13 may, thu
thu1300:00+10ssw2288100 0.1 100737
03:00+10wsw1196100 2.1 100659
06:00+9sw139897 7.2 1006122
09:00+11wnw128714 8.1 1006425
12:00+13w347645 1.6 10061121
15:00+16wnw244577 2.5 10051944
18:00+13se017773 1.3 1005435
21:00+9sw2293100 3.9 100643
14 may, fri
fri1400:00+8sw2397100 8.9 1008118
03:00+7sw1294100 15.1 100848
06:00+7wsw1297100 1.9 1008127
09:00+8w239676 2.3 1010156
12:00+11wnw238078 0.6 1010767
15:00+13nw126878 2.1 10091114
18:00+13w238017 2.3 1009685
21:00+8ssw21932 3.8 101116
15 may, sat
sat1500:00+6wsw359572 0.1 1014163
03:00+6ssw3291100 0.3 101331
06:00+5ssw228996 0.0 101328
09:00+11nnw116994 0.0 1012434
12:00+14nne2257100 0.1 10111233
15:00+13wnw0177100 1.1 1011430
18:00+13ene1184100 1.2 1010262
21:00+9se119375 2.4 101011